Location: Tr�vern
(48.0333°N, 4.6000°W)
Time: 08:09:22
(UTC+00:00)

Cosmos 1536 - Pass Details

Date: 14 July 2020
Orbit: 539 x 559 km, 82.5° (Epoch: 04 August)

Event Time Altitude Azimuth Distance (km) Brightness Sun altitude
Exits shadow 02:03:03 15° 145° (SE) 1,551 4.8 -16.9°
Maximum altitude 02:05:46 30° 91° (E) 1,018 4.4 -16.7°
Drops below altitude 10° 02:09:19 10° 29° (NNE) 1,848 6.8 -16.5°
Sets 02:11:40 0° 19° (NNE) 2,745 8.2 -16.3°
